Simultaneous Nadir Overpasses (SNOs) Predictions

Prediction of SNOs between AQUA and NOAA-19 Satellite Orbit:

Table of predicted SNOs for the next 14.0 days since TLE Epoch: 9/6/2019
Index Date (AQUA) Time (AQUA) Lat,Lon (AQUA) SZA (AQUA ) Date (NOAA-19) Time (NOAA-19) Lat,Lon (NOAA-19) SZA (NOAA-19 ) Distance(km) Time Diff (sec)
1 09/07/2019 07:49:33 80.27, 29.67 75.66 09/07/2019 07:49:19 80.27, 29.78 75.66 2.02 14
2 09/07/2019 08:38:58 -80.25,-162.49 104.37 09/07/2019 08:40:10 -80.37,-161.30 104.40 25.85 72
3 09/09/2019 13:23:15 -80.25, 126.49 103.58 09/09/2019 13:22:38 -80.27, 126.49 103.54 2.86 37
4 09/09/2019 14:12:43 80.27, -66.07 76.48 09/09/2019 14:13:42 80.28, -66.15 76.47 1.92 59
5 09/11/2019 18:57:00 80.27,-137.14 77.29 09/11/2019 18:56:06 80.25,-137.18 77.30 2.27 54
6 09/11/2019 19:46:26 -80.27, 30.45 102.69 09/11/2019 19:47:02 -80.26, 30.35 102.70 2.15 36
7 09/14/2019 00:30:41 -80.21, -40.01 101.99 09/14/2019 00:29:33 -80.09, -42.80 101.79 54.54 68
8 09/14/2019 01:20:10 80.27, 127.06 78.13 09/14/2019 01:20:28 80.27, 127.18 78.12 2.19 18
9 09/16/2019 06:53:53 -80.27,-136.40 101.03 09/16/2019 06:53:49 -80.25,-136.38 101.05 2.27 4
10 09/18/2019 12:27:35 80.24, -39.58 79.77 09/18/2019 12:27:13 80.26, -39.58 79.79 1.27 22
11 09/18/2019 13:17:02 -80.27, 127.79 100.17 09/18/2019 13:18:11 -80.26, 127.79 100.21 1.20 69
12 09/20/2019 18:01:18 -80.25, 56.97 99.39 09/20/2019 18:00:35 -80.24, 56.87 99.37 2.19 43




NCC Satellite Simultaneous Nadir Overpasses (SNOs) Prediction Service
